Philip, SD

4:06 AM MDT on June 27, 2017 (GMT -0600)
Philip

Weather History for KPHP - September, 2012

Change the Weather History Date:

Wednesday, September 19, 2012

  Actual Average Record
Temperature  
Mean Temperature 59 °F 61 °F  
Max Temperature 75 °F 76 °F 101 °F (1984)
Min Temperature 42 °F 45 °F 20 °F (1991)
Degree Days  
Heating Degree Days 6 6  
Month to date heating degree days 35 72  
Since 1 July heating degree days 40 97  
Cooling Degree Days 0 2  
Month to date cooling degree days 89 67  
Year to date cooling degree days 1200 802  
Growing Degree Days 10 (Base 50)    
Moisture  
Dew Point 29 °F    
Average Humidity 33    
Maximum Humidity 49    
Minimum Humidity 16    
Precipitation  
Precipitation 0.00 in 0.04 in 1.14 in (1986)
Month to date precipitation T 0.95  
Year to date precipitation 5.99 14.33  
Sea Level Pressure  
Sea Level Pressure 29.95 in    
Wind  
Wind Speed 14 mph (NW)    
Max Wind Speed 30 mph    
Max Gust Speed 37 mph    
Visibility 10 miles    
Events      
T = Trace of Precipitation, MM = Missing Value Source: NWS Daily Summary

Daily Weather History Graph

Daily Weather History Graph

Search for Another Location

Airport or City:

Trip Planner

Search our weather history database for the weather conditions in past years. The results will help you decide how hot, cold, wet, or windy it might be!

Date:

Astronomy

Sep. 19, 2012 Rise Set
Actual Time 6:30 AM MDT 6:48 PM MDT
Civil Twilight 6:01 AM MDT 7:17 PM MDT
Nautical Twilight 5:27 AM MDT 7:51 PM MDT
Astronomical Twilight 4:52 AM MDT 8:25 PM MDT
Moon 10:54 AM MDT (9/19) 8:47 PM MDT (9/19)
Length of Visible Light 13h 15m
Length of Day
12h 17m
Waxing Crescent, 17% of the Moon is Illuminated
Sep 19
Waxing Crescent
Sep 22
First Quarter
Sep 29
Full
Oct 8
Last Quarter
Oct 15
New

Hourly Weather History & Observations

Time (MDT) Temp. Windchill Dew Point Humidity Pressure Visibility Wind Dir Wind Speed Gust Speed Precip Events Conditions
12:55 AM 55.0 °F - 30.0 °F 38% 29.77 in 10.0 mi West 8.1 mph - N/A   Clear
1:55 AM 55.0 °F - 30.9 °F 40% 29.76 in 10.0 mi West 9.2 mph - N/A   Clear
2:55 AM 55.0 °F - 30.9 °F 40% 29.76 in 10.0 mi West 9.2 mph - N/A   Clear
3:55 AM 53.1 °F - 30.9 °F 43% 29.75 in 10.0 mi West 6.9 mph - N/A   Clear
4:55 AM 53.1 °F - 32.0 °F 45% 29.76 in 10.0 mi West 11.5 mph - N/A   Clear
5:55 AM 52.0 °F - 32.0 °F 47% 29.83 in 10.0 mi NW 9.2 mph - N/A   Clear
6:55 AM 57.9 °F - 32.0 °F 37% 29.88 in 10.0 mi NW 9.2 mph 18.4 mph N/A   Clear
7:55 AM 62.1 °F - 34.0 °F 35% 29.95 in 10.0 mi WNW 12.7 mph 20.7 mph N/A   Clear
8:55 AM 64.9 °F - 37.0 °F 36% 29.99 in 10.0 mi NNW 19.6 mph 29.9 mph N/A   Clear
9:55 AM 68.0 °F - 36.0 °F 31% 30.03 in 10.0 mi NNW 21.9 mph 31.1 mph N/A   Clear
10:55 AM 69.1 °F - 33.1 °F 26% 30.04 in 10.0 mi NNW 19.6 mph 34.5 mph N/A   Clear
11:55 AM 71.1 °F - 30.0 °F 22% 30.04 in 10.0 mi NNW 23.0 mph 34.5 mph N/A   Clear
12:55 PM 73.0 °F - 28.9 °F 20% 30.03 in 10.0 mi WNW 24.2 mph 36.8 mph N/A   Clear
1:55 PM 73.0 °F - 28.0 °F 19% 30.01 in 10.0 mi NW 21.9 mph 32.2 mph N/A   Clear
2:55 PM 73.0 °F - 28.0 °F 19% 30.01 in 10.0 mi NW 20.7 mph 31.1 mph N/A   Clear
3:55 PM 73.9 °F - 25.0 °F 16% 30.00 in 10.0 mi NW 23.0 mph 34.5 mph N/A   Clear
4:55 PM 72.0 °F - 26.1 °F 18% 30.00 in 10.0 mi NW 18.4 mph 28.8 mph N/A   Clear
5:55 PM 71.1 °F - 26.1 °F 19% 30.00 in 10.0 mi NNW 15.0 mph 27.6 mph N/A   Clear
6:55 PM 62.1 °F - 26.1 °F 25% 30.01 in 10.0 mi NNW 10.4 mph - N/A   Clear
7:55 PM 59.0 °F - 26.1 °F 28% 30.02 in 10.0 mi North 12.7 mph - N/A   Clear
8:55 PM 50.0 °F - 25.0 °F 38% 30.04 in 10.0 mi NW 4.6 mph - N/A   Clear
9:55 PM 48.0 °F - 27.0 °F 44% 30.05 in 10.0 mi NW 4.6 mph - N/A   Clear
10:55 PM 46.9 °F - 26.1 °F 44% 30.05 in 10.0 mi West 5.8 mph - N/A   Clear
11:55 PM 45.0 °F 41.8 °F 26.1 °F 48% 30.05 in 10.0 mi West 5.8 mph - N/A   Clear